TITAN 3C TRANSTAGE DEB, 1653

Orbit data source: Space-Track

TITAN 3C TRANSTAGE DEB, 1653 is space debris in LEO originally from a launch on Fri, 15 Oct 1965 UTC launched from the Air Force Eastern Test Range (AFETR). Debris objects in space refer to the collection of defunct objects orbiting the Earth. Examples of debris include non-operational satellites, rocket bodies, and fragments generated from explosions, collisions, or faulty payload assembly.

Loading next visibility...
Identifier
1653, 1965-082Q
Orbit
LEO
Last TLE update
18 hours ago
Origin
Manufacturer
Unknown
Mission
Spacecraft
Bus & Motor
Unknown
Mass
Unknown
Launch date (UTC)
1965-10-15 (60 years ago)
Launch vehicle
Unknown
Launch site
Air Force Eastern Test Range (AFETR)
Object type
Payload
Rocket body
Debris
Shape & HBR
Unknown
Radar Cross Section
0.610 m², Medium (>0.1 m² and < 1m²)

Expand to show TLE details & history

TLE from 18 hours ago
0 TITAN 3C TRANSTAGE DEB
1 01653U 65082Q   25199.71262758  .00000287  00000-0  45664-4 0  9996
2 01653  32.1204 343.1357 0041297 276.4258  83.1686 14.64020369162592
Epoch: 2025-07-18T17:06Z
TLE epoch observation values (Epoch: 2025-07-18T17:06:11.022Z)
Latitude
-0.00002°
Longitude
149.8296°
Altitude
675.523 km
Speed
7.523 km/s
True Right ascension
22h 52m 32s
True Declination
0° 00' 00"
Sunlit
Object was in full shadow at epoch
Visualization orbit readout
Latitude
-28.52386°
Longitude
86.01903°
Altitude
658.224 km
Speed
7.544 km/s
Apparent Right ascension
15h 42m 10s
Apparent Declination
-47° 15' 57"
Sunlit
Object is in full shadow
Visualization observer readout
Local Sidereal Time
23:38:32
Azimuth
239.332° WSW
Elevation
-46.418°
Doppler factor
1
Orbital elements
Apogee altitude
712.986 km
Perigee altitude
654.658 km
Semi-major axis
7,061.959 km
Eccentricity
0.00413
Inclination
32.1204°
RAAN
343.1357°
Arg. of periapsis
276.4258°
True anomaly
83.63875°
Mean anomaly
83.1686°
Eccentric anomaly
83.40365°
Mean motion
3.65726 °/min
Orbital period
98.43 mins
BSTAR
0.000045664
Loading maneuver chart data...
Loading SW <> Apogee altitude chart data...
|